Regional Weather Roundup
Issued by NWS Mobile, AL

Home | Current Version | Previous Version | Text Only | Print | Product List | Glossary On
Versions: 1 2 3 4 5 6 7 8 9 10 11 12 13 14 15 16 17 18 19 20 21 22 23 24 25 26 27 28
000
ASUS44 KMOB 181210
RWRMOB
REGIONAL WEATHER ROUNDUP
NATIONAL WEATHER SERVICE MOBILE AL
700 AM CDT FRI APR 18 2014

NOTE: "FAIR" INDICATES FEW OR NO CLOUDS BELOW 12,000 FEET WITH NO
      SIGNIFICANT WEATHER AND/OR OBSTRUCTIONS TO VISIBILITY.

  * THESE STATIONS ARE PART OF THE UNIVERSITY OF SOUTH ALABAMA
    MESONET AND ARE NOT UNDER NWS OR FAA QUALITY CONTROL.

ALZ061>064-181300-
COASTAL ALABAMA

CITY           SKY/WX    TMP DP  RH WIND       PRES   REMARKS
MOBILE REG APT LGT RAIN  59  59 100 NE12      30.07R FOG
6HR MIN TEMP:  59; 6HR MAX TEMP:  60; 6HR PCP:  0.26;

BROOKLEY FIELD RAIN      60  58  92 N10       30.07R FOG
6HR MIN TEMP:  60; 6HR MAX TEMP:  62;

USA CAMPUS*      N/A     59  57  94 CALM      30.07R
DOG RIVER*     NOT AVBL


CITY           SKY/WX    TMP DP  RH WIND       PRES   REMARKS
MOUNT VERNON*    N/A     57  55  94 CALM      30.10R
SARALAND*      NOT AVBL
BAY MINETTE*   NOT AVBL
LOXLEY*        NOT AVBL
ROBERTSDALE*   NOT AVBL
FAIRHOPE*      NOT AVBL
ELBERTA*       NOT AVBL
FOLEY*         NOT AVBL
GRAND BAY*       N/A     59  59 100 N16       30.04R
DAUPHIN ISLND* NOT AVBL
BON SCOUR NWR* NOT AVBL
GULF SHORES    LGT RAIN  60  59  97 NE10G16   30.02S

$$

ALZ051>060-181300-
INTERIOR SOUTHWEST AND SOUTH CENTRAL ALABAMA

CITY           SKY/WX    TMP DP  RH WIND       PRES   REMARKS
GREENVILLE     RAIN      55  53  93 E12       30.15R FOG
6HR MIN TEMP:  55; 6HR MAX TEMP:  61; 6HR PCP:  0.61;

EVERGREEN      RAIN      58  55  90 NE9       30.13S FOG
6HR MIN TEMP:  58; 6HR MAX TEMP:  60; 6HR PCP:  1.19;

CASTLEBERRY*   NOT AVBL
ATMORE*          N/A     57  57 100 NE13      30.10R
DIXIE*         NOT AVBL
ANDALUSIA/OPP  RAIN      59  54  83 E14G20    30.10F
6HR MIN TEMP:  59; 6HR MAX TEMP:  62; 6HR PCP:  1.08;

ANDALUSIA*     NOT AVBL
FLORALA APT    HVY RAIN  57  55  93 NE12      30.10S FOG
6HR MIN TEMP:  57; 6HR MAX TEMP:  60; 6HR PCP:  1.53;

FLORALA*         N/A     55  54  94 E7        30.06F

$$

FLZ001>006-181300-
WESTERN FLORIDA PANHANDLE

CITY           SKY/WX    TMP DP  RH WIND       PRES   REMARKS
PENSACOLA      HVY RAIN  60  57  89 N10       30.05R FOG
6HR MIN TEMP:  60; 6HR MAX TEMP:  62; 6HR PCP:  1.36;

NAS PENSACOLA  HVY RAIN  60  59  96 NE20G26   30.03S FOG
6HR MIN TEMP:  60; 6HR MAX TEMP:  62;

MILTON         HVY RAIN  58  55  90 E10       30.07R VSB 3/4
6HR MIN TEMP:  58; 6HR MAX TEMP:  59;

WHTNG S FIELD  HVY RAIN  60  57  89 NE14      30.07R VSB 1
6HR MIN TEMP:  60; 6HR MAX TEMP:  64; 6HR PCP:  1.86;



CITY           SKY/WX    TMP DP  RH WIND       PRES   REMARKS
WALNUT HILL*   NOT AVBL
JAY*           NOT AVBL
DUKE FIELD     RAIN      57  57 100 VRB6      30.05R FOG
CRESTVIEW      HVY RAIN  58  57  97 NE12G21   30.07R FOG
6HR MIN TEMP:  58; 6HR MAX TEMP:  60;

VALPARAISO     HVY RAIN  60  60 100 VRB7      30.03R FOG
6HR MIN TEMP:  60; 6HR MAX TEMP:  61; 6HR PCP:  1.28;

DESTIN         LGT RAIN  62  58  86 NE14G23   30.03R
6HR MIN TEMP:  61; 6HR MAX TEMP:  63; 6HR PCP:  1.27;


$$

MSZ076-079-181300-
INTERIOR SOUTHEAST MISSISSIPPI

CITY           SKY/WX    TMP DP  RH WIND       PRES   REMARKS
LEAKESVILLE*     N/A     57  55  94 NE3       30.11R
AGRICOLA*      NOT AVBL

$$

MARINE OBSERVATIONS

STATION/POSITION TIME  TEMP    WIND        PRES    WAVE
                       AIR SEA DIR/SP/G            HT/PER
                 (UTC) (F)     (DEG/KT/KT) (MB)    (FT/S)
PASCAGOULA       1200   62      40/ 11/ 15 1016.9R
PETIT BOIS ISLND 1200   62      40/ 21/ 24 1016.9R
GRAND BAY        1100   61      60/ 14     1018.0R
KATRINA CUT      1100   61      70/ 21     1016.9S
CEDAR POINT      1100   61      60/ 15     1016.3F
E DAUPHIN ISLAND 1200   61      30/ 14/ 16 1016.9R
MIDDLE BAY LIGHT 1100   61      50/ 19     1016.3S
USCG MOBILE BAY  1200   60 64   20/ 11/ 13 1016.8R
STATE DOCKS      1200   60 63              1017.6R
MEAHER PARK      1100   60      50/  8     1017.6S
WEEKS BAY        1100   51                   N/A
FORT MORGAN      1200   61      60/ 19/ 22 1016.1R
12 S ORANGE BCH  1200   63 66   50/ 25/ 29 1015.4F   6/ 7
PENSACOLA BAY    1200   61 66   30/  9/ 16 1017.5S
64 S DAUPHIN ISL 1121   66 71   30/ 25/ 33 1014.5R

$$

SELECTED LOCATIONS ACROSS THE REGION

CITY           SKY/WX    TMP DP  RH WIND       PRES   REMARKS
NEW ORLEANS    DRIZZLE   61  60  97 N9        30.09R FOG
GULFPORT       LGT RAIN  62  59  90 N7        30.07R FOG
PASCAGOULA AP  RAIN      60  59  96 NE12      30.06R FOG
PASCAGOULA*    NOT AVBL
HATTIESBURG    LGT RAIN  60  58  92 E6        30.12R
LAUREL         CLOUDY    57  55  94 N6        30.13R
MERIDIAN       CLOUDY    56  54  93 NE7       30.17R
JACKSON        CLOUDY    57  54  89 N5        30.17R
MONTGOMERY     RAIN      55  52  88 NE12      30.20R FOG
TROY           RAIN      55  52  89 E10       30.19R
KINSTON*       NOT AVBL
GENEVA*          N/A     54  52  94 NE14      30.12F
ASHFORD*       NOT AVBL
DOTHAN         HVY RAIN  54  53  97 NE10      30.18S FOG
PANAMA CITY    RAIN      61  58  90 NE20G29   30.00F FOG

$$




USA.gov is the U.S. government's official web portal to all federal, state and local government web resources and services.